User: anonymous   Login
Location: Bodest
(46.3000°N, 22.5667°E)
Time: 11:25:47
(UTC+00:00)
Language:

SL-19 R/B - Orbit

View from above orbital plane
View from above orbital plane
View from above satellite
View from above satellite

Ground track
Ground track

The orbit data is extracted from the following two-line orbital elements,

1 36589U 10023B   22021.80821112 -.00000041  00000-0  13377-4 0  9998
2 36589 100.5563 210.1547 0224924 287.5712  81.2173 13.58402500577399
Epoch (UTC): 21 January 2022 19:23:49
Eccentricity: 0.0224924
inclination: 100.5563°
perigee height: 874 km
apogee height: 1208 km
right ascension of ascending node: 210.1547°
argument of perigee: 287.5712°
revolutions per day: 13.58402500
mean anomaly at epoch: 81.2173°
orbit number at epoch: 57739

The dashed part of the orbit path shows where the satellite is in the earth's shadow,  

DLR